EW5295 Weather Reports


Display with metric or nautical units.
time (UTC)temp
F
wind
direction
speed
MPH
gust
MPH
rain 1hr
in
rain 24hr
in
rain mn
in
humidity
%
barometer
mb
20260505181505 58 137 0.0 3.0 0.00 0.00 0.00 79 1015.7
20260505180019 58 311 0.0 3.0 0.00 0.00 0.00 81 1015.6
20260505173019 56 235 0.0 0.0 0.00 0.00 0.00 84 1015.7
20260505170028 55 164 0.0 0.0 0.00 0.00 0.00 86 1015.3
20260505163034 54 169 0.0 0.0 0.00 0.00 0.00 87 1015.3
20260505161505 54 171 0.0 0.0 0.00 0.00 0.00 88 1015.2
20260505153030 52 172 0.0 0.0 0.00 0.00 0.00 92 1015.1
20260505120024 50 153 0.0 0.0 0.00 0.00 0.00 93 1013.7
20260505100106 50 148 0.0 1.0 0.00 0.00 0.00 92 1013.1
20260505091533 50 141 0.0 0.0 0.00 0.00 0.00 91 1012.8
20260505090021 51 141 0.0 0.0 0.00 0.00 0.00 90 1012.7
20260505084525 51 141 0.0 0.0 0.00 0.00 0.00 90 1012.6
20260505083024 51 141 0.0 0.0 0.00 0.00 0.00 89 1012.6
20260505081540 52 141 0.0 1.0 0.00 0.00 0.00 89 1012.6
20260505074502 53 140 0.0 0.0 0.00 0.00 0.00 87 1012.3
20260505073045 54 141 0.0 0.0 0.00 0.00 0.00 87 1012.0
20260505063053 56 141 0.0 0.0 0.00 0.00 0.00 84 1011.3
20260505054534 58 141 0.0 0.0 0.00 0.00 0.00 81 1011.1
20260505053050 59 141 0.0 1.0 0.00 0.00 0.00 80 1011.0
20260505040050 62 104 0.0 1.0 0.00 0.00 0.00 76 1010.1
20260505034537 63 104 0.0 1.0 0.00 0.00 0.00 75 1009.9
20260505033026 64 96 0.0 1.0 0.00 0.00 0.00 74 1009.6
20260505023043 68 160 0.0 0.0 0.00 0.00 0.00 70 1009.1
20260505001558 73 222 0.0 1.0 0.00 0.00 0.00 64 1009.4
20260504234533 73 163 0.0 1.0 0.00 0.00 0.00 64 1009.6
20260504233005 73 155 0.0 1.0 0.00 0.00 0.00 63 1009.7
20260504224556 73 150 0.0 0.0 0.00 0.00 0.00 62 1010.0
20260504223110 72 317 0.0 2.0 0.00 0.00 0.00 62 1010.1
20260504223020 72 240 0.0 2.0 0.00 0.00 0.00 62 1010.1
20260504221513 72 156 0.0 1.0 0.00 0.00 0.00 63 1010.3
20260504213103 72 168 0.0 1.0 0.00 0.00 0.00 63 1010.8
20260504203046 67 117 0.0 1.0 0.00 0.00 0.00 70 1011.5
20260504203008 67 117 0.0 1.0 0.00 0.00 0.00 69 1011.5
20260504194551 64 175 0.0 1.0 0.00 0.00 0.00 72 1011.8
20260504194528 64 158 0.0 1.0 0.00 0.00 0.00 72 1011.8
20260504193044 63 135 0.0 2.0 0.00 0.00 0.00 73 1011.8